Total_Precipitation_Accumulation
1.60 1.61 1.85 1.68 1.53 1.52 1.58 1.57 1.58 1.54 1.57 1.68 1.63 1.56 1.52 1.53 1.41 1.35 1.40 1.48 1.55 1.62 1.77 1.86 1.81 1.75 1.72 1.59 1.46 1.40 1.44 1.42 1.60 1.61 1.57 1.58 1.59 1.72 1.90 1.96 2.02 1.37 1.19
1.32 1.25 1.46 1.42 1.40 1.52 1.50 1.52 1.59 1.54 1.54 1.57 1.53 1.46 1.40 1.40 1.44 1.38 1.40 1.48 1.53 1.65 1.80 1.81 1.68 1.59 1.46 1.33 1.22 1.24 1.37 1.49 1.71 1.84 1.92 1.85 1.86 1.95 1.99 1.95 2.03 1.30 1.20
0.96 0.92 1.01 1.19 1.15 1.19 1.22 1.26 1.39 1.41 1.41 1.44 1.41 1.38 1.42 1.45 1.45 1.44 1.43 1.53 1.58 1.61 1.69 1.69 1.55 1.40 1.25 1.18 1.15 1.25 1.35 1.66 2.05 2.31 2.56 2.11 1.59 1.99 2.02 1.86 1.62 1.17 1.17
0.68 0.72 0.77 1.02 1.06 1.05 1.10 1.16 1.29 1.30 1.27 1.29 1.30 1.35 1.37 1.41 1.47 1.51 1.52 1.57 1.54 1.54 1.74 1.60 1.40 1.17 1.06 1.07 1.17 1.30 1.42 1.68 2.04 2.59 2.88 2.01 1.31 1.55 1.61 1.43 1.32 1.17 1.09
0.50 0.61 0.81 0.97 1.05 1.05 1.03 1.09 1.18 1.16 1.17 1.18 1.17 1.22 1.29 1.35 1.46 1.52 1.52 1.47 1.38 1.45 1.63 1.50 1.25 1.04 0.94 0.96 1.13 1.26 1.43 1.75 2.08 2.30 2.01 1.97 1.75 1.57 1.36 1.22 1.18 1.11 0.92
0.44 0.56 0.79 0.93 0.93 0.91 0.91 1.00 1.08 1.11 1.13 1.10 1.06 1.14 1.24 1.29 1.34 1.37 1.34 1.26 1.23 1.32 1.38 1.52 1.23 1.05 0.97 1.02 1.15 1.25 1.45 1.82 1.97 1.58 1.41 1.67 1.47 1.51 1.40 1.36 1.31 1.19 0.93
0.47 0.55 0.67 0.84 0.85 0.90 0.93 0.93 0.95 1.08 1.08 1.02 1.02 1.08 1.21 1.22 1.30 1.30 1.17 1.08 1.12 1.27 1.29 1.37 1.32 1.14 1.01 1.02 1.10 1.22 1.53 1.83 1.66 1.29 1.34 1.64 1.34 1.26 1.41 1.55 1.65 1.42 1.10
0.48 0.51 0.58 0.72 0.77 0.84 0.86 0.86 0.90 0.93 0.97 1.01 1.06 1.09 1.08 1.16 1.21 1.14 1.06 1.05 1.02 1.18 1.20 1.14 1.27 1.16 1.00 0.99 1.03 1.11 1.36 1.58 1.33 1.16 1.21 1.38 1.11 1.22 1.46 1.67 1.86 1.63 1.33
0.50 0.53 0.56 0.64 0.72 0.78 0.84 0.85 0.92 0.98 0.95 1.00 1.05 1.09 1.12 1.10 1.02 0.96 1.03 1.04 0.97 1.02 1.05 1.00 1.00 0.95 0.89 0.91 0.97 1.08 1.31 1.61 1.44 1.27 1.12 1.09 1.02 1.28 1.62 1.77 1.78 1.65 1.45
0.86 0.77 0.60 0.54 0.65 0.73 0.74 0.88 0.96 0.97 0.96 0.98 1.04 1.12 1.13 1.03 0.94 0.94 0.96 1.04 1.01 0.96 0.93 0.90 0.84 0.81 0.84 0.89 1.00 1.21 1.43 1.52 1.45 1.37 1.26 1.04 1.14 1.44 1.67 1.73 1.76 1.66 1.51
1.36 1.24 0.84 0.67 0.71 0.80 0.72 0.74 0.97 1.06 1.05 1.14 1.24 1.29 1.35 1.43 1.25 1.31 1.23 1.28 1.20 1.10 1.08 1.08 1.02 0.96 0.86 0.80 0.98 1.27 1.36 1.45 1.75 1.73 1.29 1.07 1.29 1.66 1.80 1.86 1.84 1.74 1.62
1.54 1.49 1.14 1.01 0.84 0.77 0.68 0.86 1.16 1.18 1.30 1.45 1.57 1.48 1.74 1.96 1.79 1.39 1.57 1.84 1.76 1.69 1.59 1.56 1.48 1.23 1.01 0.96 1.44 1.82 1.51 1.74 1.91 1.61 1.33 1.33 1.70 2.07 2.30 2.18 1.92 1.72 1.56
1.67 1.59 1.35 1.27 1.15 0.95 1.05 1.04 1.25 1.55 1.76 1.65 1.50 1.55 1.92 1.81 1.55 1.55 1.71 1.89 2.07 1.97 1.89 1.97 2.01 1.72 1.64 1.92 2.19 2.08 1.70 1.85 1.91 1.80 1.60 1.69 2.16 2.67 2.92 2.71 2.26 1.89 1.62
1.95 1.84 1.65 1.46 1.32 1.27 1.26 1.24 1.36 1.50 1.71 1.73 1.77 1.69 1.92 2.24 2.15 2.13 2.25 2.21 2.29 2.44 2.75 2.60 2.64 2.39 2.24 2.17 2.27 2.06 1.94 2.07 2.08 2.41 2.49 2.38 2.52 2.86 3.31 3.16 2.67 2.22 1.93
2.44 2.35 2.14 1.79 1.75 1.70 1.79 1.87 1.63 1.68 1.79 2.01 2.17 2.13 2.11 2.40 2.42 2.47 2.50 2.50 2.34 2.44 2.62 2.89 2.76 2.80 2.83 2.59 2.27 2.13 2.27 2.38 2.47 2.55 2.55 2.69 2.58 2.64 3.21 3.37 3.01 2.57 2.33
3.08 3.13 2.90 2.53 2.48 2.43 2.28 2.25 2.15 1.96 2.12 2.20 2.32 2.30 2.32 2.56 2.74 2.71 2.54 2.55 2.41 2.39 2.51 2.75 2.81 3.17 3.14 3.03 2.57 2.37 2.43 2.51 2.54 2.67 2.60 2.83 2.69 2.50 2.83 3.16 3.22 3.01 2.73
3.34 3.54 3.52 3.34 3.33 3.26 3.03 2.74 2.50 2.39 2.33 2.54 2.65 2.57 2.62 2.67 2.86 2.82 2.73 2.53 2.49 2.53 2.74 2.84 2.88 3.15 3.17 3.08 2.93 2.74 2.60 2.37 2.25 2.33 2.38 2.53 2.48 2.44 2.57 2.81 3.10 3.19 3.09
3.59 3.82 4.05 3.98 3.99 3.83 3.64 3.35 3.05 2.82 2.76 2.76 2.71 2.72 2.65 2.77 2.83 2.95 2.75 2.49 2.57 2.54 2.70 3.00 3.10 3.29 3.49 3.48 3.21 2.92 2.72 2.57 2.33 2.29 2.20 2.18 2.42 2.10 2.33 2.65 2.87 3.03 3.34
3.94 4.32 4.72 4.79 4.72 4.40 4.03 3.82 3.68 3.43 3.20 2.98 2.94 2.85 2.75 2.74 2.70 2.87 2.71 2.62 2.66 2.85 2.87 2.68 3.26 3.59 3.68 3.65 3.05 2.91 2.55 2.41 2.24 2.12 2.18 2.03 2.15 2.21 2.24 2.28 2.42 2.62 3.22
4.45 5.06 5.17 5.18 5.43 5.16 4.82 4.60 4.36 3.92 3.52 3.21 3.09 2.97 2.74 2.68 2.62 2.88 2.61 2.61 2.76 3.03 3.10 3.20 3.62 3.71 3.54 3.71 3.08 2.68 2.29 1.94 1.88 1.91 1.79 1.80 1.80 1.76 1.94 2.34 2.67 2.39 2.83
4.29 4.90 5.54 5.71 5.57 5.34 5.03 4.57 4.20 3.78 3.51 3.22 2.96 2.75 2.69 2.66 2.74 3.16 2.80 3.04 2.97 3.02 3.07 3.26 3.53 3.51 3.30 3.61 3.60 2.90 2.09 1.63 1.62 1.51 1.49 1.56 1.51 1.55 1.82 2.36 2.74 2.80 2.56
3.73 4.19 4.64 4.94 4.63 4.29 4.08 3.96 3.81 3.73 3.33 3.17 3.12 3.15 2.86 2.87 2.86 2.91 3.11 3.04 3.06 3.14 2.96 3.06 3.39 3.23 2.85 3.27 3.59 3.52 2.66 2.10 1.66 1.17 1.29 1.36 1.47 1.65 1.67 1.76 2.22 2.75 2.66
3.19 3.35 3.50 3.70 3.76 3.78 3.82 3.89 3.96 4.08 3.75 3.62 3.57 3.48 3.03 2.93 2.89 2.96 2.91 2.86 2.96 2.89 2.84 2.86 3.07 3.18 2.99 3.02 3.40 3.72 3.07 2.37 1.85 1.37 1.29 1.25 1.54 1.88 1.87 1.87 2.04 2.40 2.55
2.50 2.77 3.22 3.43 3.55 3.73 3.97 3.96 3.96 3.92 3.83 3.81 3.93 3.88 3.69 3.40 3.16 2.95 2.77 2.71 2.66 2.57 2.68 2.46 2.75 2.98 3.10 2.81 2.96 3.00 2.86 2.73 2.55 1.88 1.48 1.35 1.62 1.87 2.00 1.98 2.05 2.24 2.42
2.10 2.39 2.92 3.44 3.71 3.87 4.05 4.14 4.38 4.21 4.06 3.93 3.98 4.05 3.81 3.55 3.22 2.87 2.81 2.75 2.68 2.55 2.46 2.41 2.62 2.58 2.67 2.68 2.70 2.73 2.78 2.75 2.54 2.28 1.90 1.75 1.71 1.50 1.53 1.69 1.93 2.17 2.27
2.26 2.50 2.87 3.33 3.68 3.85 3.95 3.99 4.06 4.04 4.02 3.80 3.69 3.44 3.06 2.93 2.82 2.61 2.54 2.52 2.43 2.44 2.44 2.41 2.43 2.40 2.48 2.56 2.54 2.53 2.63 2.64 2.59 2.62 2.31 2.08 1.90 1.63 1.54 1.60 1.77 1.93 2.01